Time,TemperatureF,DewpointF,PressureIn,WindDirection,WindDirectionDegrees,WindSpeedMPH,WindSpeedGustMPH,Humidity,HourlyPrecipIn,Conditions,Clouds,dailyrainin,SoftwareType,DateUTC
2013-06-21 00:02:00,72.3,31.4,29.93,WNW,293,2.2,4.9,22,0.00,,BKN220,0.00,VWS V13.01,2013-06-21 06:02:00,
2013-06-21 00:07:00,72.3,31.4,29.93,WNW,292,0.0,4.9,22,0.00,,SCT220,0.00,VWS V13.01,2013-06-21 06:07:00,
2013-06-21 00:12:00,72.0,31.1,29.93,WNW,289,3.1,4.9,22,0.00,,SCT220,0.00,VWS V13.01,2013-06-21 06:12:00,
2013-06-21 00:17:00,71.6,30.8,29.93,WNW,284,2.7,2.7,22,0.00,,SCT220,0.00,VWS V13.01,2013-06-21 06:17:00,
2013-06-21 00:22:00,71.2,30.5,29.93,WNW,284,0.0,3.1,22,0.00,,SCT220,0.00,VWS V13.01,2013-06-21 06:22:00,
2013-06-21 00:27:00,71.1,30.3,29.93,WNW,284,0.0,3.1,22,0.00,,SCT220,0.00,VWS V13.01,2013-06-21 06:27:00,
2013-06-21 00:32:00,70.5,29.9,29.93,WNW,284,0.0,0.0,22,0.00,,SCT220,0.00,VWS V13.01,2013-06-21 06:32:00,
2013-06-21 00:37:00,70.0,30.5,29.93,WNW,284,0.0,0.0,23,0.00,,SCT220,0.00,VWS V13.01,2013-06-21 06:37:00,
2013-06-21 00:42:00,69.6,30.2,29.93,WNW,284,0.0,0.0,23,0.00,,SCT220,0.00,VWS V13.01,2013-06-21 06:42:00,
2013-06-21 00:47:00,69.1,29.8,29.93,WNW,284,0.0,0.0,23,0.00,,SCT220,0.00,VWS V13.01,2013-06-21 06:47:00,
2013-06-21 00:52:00,68.5,30.4,29.93,WNW,284,0.0,0.0,24,0.00,,SCT220,0.00,VWS V13.01,2013-06-21 06:52:00,
2013-06-21 00:57:00,68.2,30.0,29.93,WNW,284,0.0,0.0,24,0.00,,SCT220,0.00,VWS V13.01,2013-06-21 06:57:00,
2013-06-21 01:02:00,68.0,30.9,29.93,WNW,284,0.0,0.0,25,0.00,,SCT220,0.00,VWS V13.01,2013-06-21 07:02:00,
2013-06-21 01:07:00,67.5,31.4,29.93,WNW,284,0.0,0.0,26,0.00,,SCT220,0.00,VWS V13.01,2013-06-21 07:07:00,
2013-06-21 01:12:00,67.1,32.9,29.93,WNW,284,0.0,0.0,28,0.00,,SCT220,0.00,VWS V13.01,2013-06-21 07:12:00,
2013-06-21 01:17:00,66.7,33.5,29.93,WNW,284,0.0,0.0,29,0.00,,SCT220,0.00,VWS V13.01,2013-06-21 07:17:00,
2013-06-21 01:22:00,66.4,34.9,29.93,WNW,284,0.0,0.0,31,0.00,,SCT220,0.00,VWS V13.01,2013-06-21 07:22:00,
2013-06-21 01:27:00,66.0,35.3,29.93,WNW,284,0.0,0.0,32,0.00,,SCT220,0.00,VWS V13.01,2013-06-21 07:27:00,
2013-06-21 01:32:00,65.7,35.8,29.93,WNW,284,0.0,0.0,33,0.00,,SCT220,0.00,VWS V13.01,2013-06-21 07:32:00,
2013-06-21 01:37:00,65.5,35.6,29.93,WNW,284,0.0,0.0,33,0.00,,SCT220,0.00,VWS V13.01,2013-06-21 07:37:00,
2013-06-21 01:43:00,65.1,36.1,29.93,WNW,284,0.0,0.0,34,0.00,,SCT220,0.00,VWS V13.01,2013-06-21 07:43:00,
2013-06-21 01:48:00,64.8,35.8,29.93,WNW,284,0.0,0.0,34,0.00,,SCT220,0.00,VWS V13.01,2013-06-21 07:48:00,
2013-06-21 01:53:00,64.4,36.2,29.93,WNW,284,0.0,0.0,35,0.00,,SCT220,0.00,VWS V13.01,2013-06-21 07:53:00,
2013-06-21 01:58:00,64.0,36.6,29.93,WNW,283,0.0,0.0,36,0.00,,SCT220,0.00,VWS V13.01,2013-06-21 07:58:00,
2013-06-21 02:03:00,63.7,36.2,29.93,WNW,284,0.0,0.0,36,0.00,,SCT220,0.00,VWS V13.01,2013-06-21 08:03:00,
2013-06-21 02:08:00,63.5,36.1,29.93,WNW,284,0.0,0.0,36,0.00,,SCT220,0.00,VWS V13.01,2013-06-21 08:08:00,
2013-06-21 02:13:00,63.5,35.4,29.93,WSW,258,0.0,0.0,35,0.00,,SCT220,0.00,VWS V13.01,2013-06-21 08:13:00,
2013-06-21 02:18:00,63.7,35.5,29.93,WSW,257,0.0,0.0,35,0.00,,SCT220,0.00,VWS V13.01,2013-06-21 08:18:00,
2013-06-21 02:23:00,63.9,35.0,29.93,WSW,257,0.0,0.0,34,0.00,,SCT220,0.00,VWS V13.01,2013-06-21 08:23:00,
2013-06-21 02:28:00,64.0,34.4,29.93,WSW,255,0.0,0.0,33,0.00,,SCT220,0.00,VWS V13.01,2013-06-21 08:28:00,
2013-06-21 02:33:00,63.9,34.2,29.93,WSW,255,0.0,0.0,33,0.00,,SCT220,0.00,VWS V13.01,2013-06-21 08:33:00,
2013-06-21 02:38:00,63.7,34.1,29.93,WSW,255,0.0,0.0,33,0.00,,SCT220,0.00,VWS V13.01,2013-06-21 08:38:00,
2013-06-21 02:43:00,63.3,34.5,29.93,WSW,255,0.0,0.0,34,0.00,,SCT220,0.00,VWS V13.01,2013-06-21 08:43:00,
2013-06-21 02:48:00,63.0,34.2,29.93,WSW,256,0.0,0.0,34,0.00,,SCT220,0.00,VWS V13.01,2013-06-21 08:48:00,
2013-06-21 02:53:00,62.4,34.4,29.93,WSW,255,0.0,0.0,35,0.00,,SCT220,0.00,VWS V13.01,2013-06-21 08:53:00,
2013-06-21 02:58:00,62.4,34.4,29.93,WSW,255,0.0,0.0,35,0.00,,SCT220,0.00,VWS V13.01,2013-06-21 08:58:00,
2013-06-21 03:03:00,62.1,34.1,29.93,WSW,255,0.0,0.0,35,0.00,,SCT220,0.00,VWS V13.01,2013-06-21 09:03:00,
2013-06-21 03:08:00,61.9,34.0,29.93,WSW,255,0.0,0.0,35,0.00,,SCT220,0.00,VWS V13.01,2013-06-21 09:08:00,
2013-06-21 03:13:00,61.7,33.8,29.93,WSW,255,0.0,0.0,35,0.00,,SCT220,0.00,VWS V13.01,2013-06-21 09:13:00,
2013-06-21 03:18:00,61.5,33.6,29.93,WSW,255,0.0,0.0,35,0.00,,SCT220,0.00,VWS V13.01,2013-06-21 09:18:00,
2013-06-21 03:23:00,61.3,33.5,29.93,WSW,255,0.0,0.0,35,0.00,,SCT220,0.00,VWS V13.01,2013-06-21 09:23:00,
2013-06-21 03:28:00,61.2,33.3,29.93,WSW,255,0.0,0.0,35,0.00,,SCT220,0.00,VWS V13.01,2013-06-21 09:28:00,
2013-06-21 03:33:00,61.2,33.3,29.93,WSW,255,0.0,0.0,35,0.00,,SCT220,0.00,VWS V13.01,2013-06-21 09:33:00,
2013-06-21 03:38:00,61.2,33.3,29.93,WSW,255,0.0,0.0,35,0.00,,SCT220,0.00,VWS V13.01,2013-06-21 09:38:00,
2013-06-21 03:43:00,61.0,33.2,29.93,WSW,255,0.0,0.0,35,0.00,,SCT220,0.00,VWS V13.01,2013-06-21 09:43:00,
2013-06-21 03:48:00,60.8,33.0,29.93,WSW,255,0.0,0.0,35,0.00,,SCT220,0.00,VWS V13.01,2013-06-21 09:48:00,
2013-06-21 03:54:00,60.6,33.5,29.93,WSW,255,0.0,0.0,36,0.00,,SCT220,0.00,VWS V13.01,2013-06-21 09:54:00,
2013-06-21 03:59:00,60.4,34.1,29.93,WSW,255,0.0,0.0,37,0.00,,SCT220,0.00,VWS V13.01,2013-06-21 09:59:00,
2013-06-21 04:04:00,60.1,33.8,29.93,SE,125,0.0,0.0,37,0.00,,SCT220,0.00,VWS V13.01,2013-06-21 10:04:00,
2013-06-21 04:09:00,60.1,33.1,29.93,SE,136,0.0,0.0,36,0.00,,SCT220,0.00,VWS V13.01,2013-06-21 10:09:00,
2013-06-21 04:14:00,60.1,33.1,29.93,SE,136,0.0,0.0,36,0.00,,SCT220,0.00,VWS V13.01,2013-06-21 10:14:00,
2013-06-21 04:19:00,59.9,32.9,29.93,SE,136,0.0,0.0,36,0.00,,FEW220,0.00,VWS V13.01,2013-06-21 10:19:00,
2013-06-21 04:24:00,59.7,32.7,29.93,SE,136,0.0,0.0,36,0.00,,FEW220,0.00,VWS V13.01,2013-06-21 10:24:00,
2013-06-21 04:29:00,59.7,32.7,29.93,SE,136,0.0,0.0,36,0.00,,FEW220,0.00,VWS V13.01,2013-06-21 10:29:00,
2013-06-21 04:34:00,59.5,32.6,29.93,SE,136,0.0,0.0,36,0.00,,FEW220,0.00,VWS V13.01,2013-06-21 10:34:00,
2013-06-21 04:39:00,59.2,33.0,29.93,SE,136,0.0,0.0,37,0.00,,FEW220,0.00,VWS V13.01,2013-06-21 10:39:00,
2013-06-21 04:44:00,59.2,33.0,29.93,SE,136,0.0,0.0,37,0.00,,FEW220,0.00,VWS V13.01,2013-06-21 10:44:00,
2013-06-21 04:49:00,59.0,32.8,29.93,SE,136,0.0,0.0,37,0.00,,FEW220,0.00,VWS V13.01,2013-06-21 10:49:00,
2013-06-21 04:54:00,58.8,33.3,29.93,SE,124,0.0,0.0,38,0.00,,FEW220,0.00,VWS V13.01,2013-06-21 10:54:00,
2013-06-21 04:59:00,58.8,32.6,29.93,ESE,123,0.0,0.0,37,0.00,,FEW220,0.00,VWS V13.01,2013-06-21 10:59:00,
2013-06-21 05:04:00,58.8,32.6,29.93,SSE,157,0.0,0.0,37,0.00,,FEW220,0.00,VWS V13.01,2013-06-21 11:04:00,
2013-06-21 05:09:00,59.2,32.3,29.93,WSW,248,0.0,4.0,36,0.00,,FEW220,0.00,VWS V13.01,2013-06-21 11:09:00,
2013-06-21 05:14:00,59.5,31.9,29.93,West,266,0.0,4.0,35,0.00,,FEW220,0.00,VWS V13.01,2013-06-21 11:14:00,
2013-06-21 05:19:00,59.7,32.0,29.93,West,266,0.0,2.7,35,0.00,,FEW220,0.00,VWS V13.01,2013-06-21 11:19:00,
2013-06-21 05:24:00,59.5,31.2,29.93,WSW,248,2.7,3.6,34,0.00,,FEW220,0.00,VWS V13.01,2013-06-21 11:24:00,
2013-06-21 05:29:00,59.5,31.2,29.93,SW,226,3.1,4.0,34,0.00,,FEW220,0.00,VWS V13.01,2013-06-21 11:29:00,
2013-06-21 05:34:00,59.5,31.2,29.93,SW,225,0.0,0.0,34,0.00,,FEW220,0.00,VWS V13.01,2013-06-21 11:34:00,
2013-06-21 05:39:00,59.4,31.0,29.93,WSW,248,0.0,3.1,34,0.00,,FEW220,0.00,VWS V13.01,2013-06-21 11:39:00,
2013-06-21 05:44:00,59.4,31.0,29.93,SW,236,0.0,3.1,34,0.00,,FEW220,0.00,VWS V13.01,2013-06-21 11:44:00,
2013-06-21 05:49:00,59.2,30.1,29.93,SW,236,0.0,0.0,33,0.00,,FEW220,0.00,VWS V13.01,2013-06-21 11:49:00,
2013-06-21 05:54:00,59.0,30.7,29.93,East,100,3.1,3.6,34,0.00,,FEW220,0.00,VWS V13.01,2013-06-21 11:54:00,
2013-06-21 05:59:00,58.5,30.9,29.93,SE,133,2.2,4.0,35,0.00,,FEW220,0.00,VWS V13.01,2013-06-21 11:59:00,
2013-06-21 06:05:00,58.1,30.6,29.93,SE,133,2.7,3.1,35,0.00,,FEW220,0.00,VWS V13.01,2013-06-21 12:05:00,
2013-06-21 06:10:00,57.9,31.1,29.96,SE,139,0.0,3.6,36,0.00,,FEW220,0.00,VWS V13.01,2013-06-21 12:10:00,
2013-06-21 06:15:00,57.9,31.1,29.96,SE,128,2.7,3.6,36,0.00,,FEW220,0.00,VWS V13.01,2013-06-21 12:15:00,
2013-06-21 06:20:00,57.9,31.1,29.96,SE,127,2.7,3.1,36,0.00,,FEW220,0.00,VWS V13.01,2013-06-21 12:20:00,
2013-06-21 06:25:00,57.9,31.1,29.96,SE,127,2.7,3.1,36,0.00,,FEW220,0.00,VWS V13.01,2013-06-21 12:25:00,
2013-06-21 06:30:00,58.5,31.6,29.96,SE,141,0.0,3.6,36,0.00,,FEW220,0.00,VWS V13.01,2013-06-21 12:30:00,
2013-06-21 06:35:00,58.8,32.0,29.96,SE,140,2.2,2.7,36,0.00,,FEW220,0.00,VWS V13.01,2013-06-21 12:35:00,
2013-06-21 06:40:00,59.4,31.7,29.96,SE,141,0.0,2.7,35,0.00,,FEW220,0.00,VWS V13.01,2013-06-21 12:40:00,
2013-06-21 06:45:00,59.7,32.0,29.96,SE,135,0.0,3.1,35,0.00,,FEW220,0.00,VWS V13.01,2013-06-21 12:45:00,
2013-06-21 06:50:00,60.1,32.4,29.96,SE,134,0.0,3.6,35,0.00,,FEW220,0.00,VWS V13.01,2013-06-21 12:50:00,
2013-06-21 06:55:00,60.6,32.8,29.96,SE,134,0.0,3.6,35,0.00,,FEW220,0.00,VWS V13.01,2013-06-21 12:55:00,
2013-06-21 07:00:00,61.3,32.8,29.96,SE,135,0.0,0.0,34,0.00,,FEW220,0.00,VWS V13.01,2013-06-21 13:00:00,
2013-06-21 07:05:00,61.9,33.2,29.96,SE,134,0.0,0.0,34,0.00,,FEW220,0.00,VWS V13.01,2013-06-21 13:05:00,
2013-06-21 07:10:00,62.6,31.6,29.96,SSE,148,3.6,3.6,31,0.00,,FEW220,0.00,VWS V13.01,2013-06-21 13:10:00,
2013-06-21 07:15:00,63.1,29.5,29.96,SE,140,0.0,0.0,28,0.00,,FEW220,0.00,VWS V13.01,2013-06-21 13:15:00,
2013-06-21 07:20:00,63.5,29.8,29.96,SSE,154,0.0,3.6,28,0.00,,FEW220,0.00,VWS V13.01,2013-06-21 13:20:00,
2013-06-21 07:25:00,64.0,30.3,29.96,SSE,153,0.0,3.6,28,0.00,,FEW220,0.00,VWS V13.01,2013-06-21 13:25:00,
2013-06-21 07:30:00,64.4,29.7,29.96,SSE,157,0.0,0.0,27,0.00,,FEW220,0.00,VWS V13.01,2013-06-21 13:30:00,
2013-06-21 07:35:00,64.8,30.0,29.96,SSE,157,0.0,0.0,27,0.00,,FEW220,0.00,VWS V13.01,2013-06-21 13:35:00,
2013-06-21 07:40:00,65.3,31.4,29.96,SSE,157,0.0,0.0,28,0.00,,FEW220,0.00,VWS V13.01,2013-06-21 13:40:00,
2013-06-21 07:45:00,65.7,30.8,29.96,WSW,237,0.0,0.0,27,0.00,,FEW220,0.00,VWS V13.01,2013-06-21 13:45:00,
2013-06-21 07:50:00,66.0,31.1,29.96,South,176,0.0,3.6,27,0.00,,FEW220,0.00,VWS V13.01,2013-06-21 13:50:00,
2013-06-21 07:55:00,66.4,30.5,29.96,SW,221,0.0,3.6,26,0.00,,FEW220,0.00,VWS V13.01,2013-06-21 13:55:00,
2013-06-21 08:00:00,66.7,29.8,29.96,SW,221,3.1,3.1,25,0.00,,FEW220,0.00,VWS V13.01,2013-06-21 14:00:00,
2013-06-21 08:06:00,66.9,30.0,29.96,SW,231,4.0,4.0,25,0.00,,FEW220,0.00,VWS V13.01,2013-06-21 14:06:00,
2013-06-21 08:11:00,67.1,30.1,29.96,WSW,258,0.0,4.0,25,0.00,,FEW220,0.00,VWS V13.01,2013-06-21 14:11:00,
2013-06-21 08:16:00,67.5,29.4,29.96,West,265,3.6,3.6,24,0.00,,FEW220,0.00,VWS V13.01,2013-06-21 14:16:00,
2013-06-21 08:21:00,68.0,29.9,29.96,WSW,258,0.0,3.6,24,0.00,,FEW220,0.00,VWS V13.01,2013-06-21 14:21:00,
2013-06-21 08:26:00,68.4,29.1,29.96,SSE,153,2.7,3.6,23,0.00,,FEW220,0.00,VWS V13.01,2013-06-21 14:26:00,
2013-06-21 08:31:00,68.9,30.6,29.96,WSW,255,3.1,4.0,24,0.00,,FEW220,0.00,VWS V13.01,2013-06-21 14:31:00,
2013-06-21 08:36:00,69.3,31.0,29.96,SW,234,4.0,4.0,24,0.00,,FEW220,0.00,VWS V13.01,2013-06-21 14:36:00,
2013-06-21 08:41:00,69.4,31.1,29.96,SSW,200,0.0,4.0,24,0.00,,FEW220,0.00,VWS V13.01,2013-06-21 14:41:00,
2013-06-21 08:46:00,70.0,31.6,29.96,West,281,2.2,2.7,24,0.00,,FEW220,0.00,VWS V13.01,2013-06-21 14:46:00,
2013-06-21 08:51:00,70.2,32.7,29.96,WSW,255,2.7,5.4,25,0.00,,FEW220,0.00,VWS V13.01,2013-06-21 14:51:00,
2013-06-21 08:56:00,70.5,34.0,29.93,WSW,240,0.0,5.4,26,0.00,,FEW220,0.00,VWS V13.01,2013-06-21 14:56:00,
2013-06-21 09:01:00,71.4,33.8,29.93,WSW,251,0.0,3.1,25,0.00,,FEW220,0.00,VWS V13.01,2013-06-21 15:01:00,
2013-06-21 09:06:00,72.1,33.4,29.93,NE,56,3.6,3.6,24,0.00,,FEW220,0.00,VWS V13.01,2013-06-21 15:06:00,
2013-06-21 09:11:00,72.5,33.7,29.90,SSE,150,3.1,4.9,24,0.00,,FEW220,0.00,VWS V13.01,2013-06-21 15:11:00,
2013-06-21 09:16:00,72.7,33.8,29.90,East,97,4.0,4.5,24,0.00,,FEW220,0.00,VWS V13.01,2013-06-21 15:16:00,
2013-06-21 09:21:00,73.2,34.3,29.90,East,88,0.0,4.5,24,0.00,,FEW220,0.00,VWS V13.01,2013-06-21 15:21:00,
2013-06-21 09:26:00,73.8,34.8,29.90,NE,54,3.1,4.5,24,0.00,,FEW220,0.00,VWS V13.01,2013-06-21 15:26:00,
2013-06-21 09:31:00,74.3,34.1,29.90,North,5,0.0,0.0,23,0.00,,FEW220,0.00,VWS V13.01,2013-06-21 15:31:00,
2013-06-21 09:36:00,74.7,34.4,29.90,ENE,60,3.1,3.6,23,0.00,,FEW220,0.00,VWS V13.01,2013-06-21 15:36:00,
2013-06-21 09:41:00,75.0,34.7,29.90,SE,129,0.0,4.9,23,0.00,,FEW220,0.00,VWS V13.01,2013-06-21 15:41:00,
2013-06-21 09:47:00,74.7,34.4,29.90,West,276,0.0,0.0,23,0.00,,FEW220,0.00,VWS V13.01,2013-06-21 15:47:00,
2013-06-21 09:52:00,75.0,34.7,29.90,SE,139,3.6,3.6,23,0.00,,FEW220,0.00,VWS V13.01,2013-06-21 15:52:00,
2013-06-21 09:57:00,75.7,33.1,29.90,ESE,115,3.1,4.9,21,0.00,,FEW220,0.00,VWS V13.01,2013-06-21 15:57:00,
2013-06-21 10:02:00,76.3,33.5,29.90,East,95,2.2,4.0,21,0.00,,FEW220,0.00,VWS V13.01,2013-06-21 16:02:00,
2013-06-21 10:07:00,76.8,32.8,29.90,West,266,3.1,4.0,20,0.00,,FEW220,0.00,VWS V13.01,2013-06-21 16:07:00,
2013-06-21 10:12:00,77.4,33.2,29.87,East,93,0.0,4.0,20,0.00,,FEW220,0.00,VWS V13.01,2013-06-21 16:12:00,
2013-06-21 10:17:00,78.4,31.5,29.87,ENE,60,4.0,4.0,18,0.00,,FEW220,0.00,VWS V13.01,2013-06-21 16:17:00,
2013-06-21 10:22:00,78.8,27.3,29.87,ENE,66,3.1,4.0,15,0.00,,FEW220,0.00,VWS V13.01,2013-06-21 16:22:00,
2013-06-21 10:27:00,79.5,27.9,29.87,WSW,245,0.0,4.0,15,0.00,,FEW220,0.00,VWS V13.01,2013-06-21 16:27:00,
2013-06-21 10:32:00,80.2,28.4,29.87,ENE,68,5.8,6.3,15,0.00,,FEW220,0.00,VWS V13.01,2013-06-21 16:32:00,
2013-06-21 10:37:00,80.4,28.6,29.87,East,101,3.1,6.3,15,0.00,,FEW220,0.00,VWS V13.01,2013-06-21 16:37:00,
2013-06-21 10:42:00,81.1,23.8,29.87,ENE,58,3.1,6.3,12,0.00,,FEW220,0.00,VWS V13.01,2013-06-21 16:42:00,
2013-06-21 10:47:00,82.0,17.7,29.87,SSE,166,3.1,6.3,9,0.00,,FEW220,0.00,VWS V13.01,2013-06-21 16:47:00,
2013-06-21 10:52:00,82.8,18.2,29.87,ESE,118,0.0,6.3,9,0.00,,FEW220,0.00,VWS V13.01,2013-06-21 16:52:00,
2013-06-21 10:57:00,83.7,18.9,29.87,East,99,4.9,7.2,9,0.00,,FEW220,0.00,VWS V13.01,2013-06-21 16:57:00,
2013-06-21 11:02:00,84.7,17.0,29.87,NE,37,4.9,5.4,8,0.00,,FEW220,0.00,VWS V13.01,2013-06-21 17:02:00,
2013-06-21 11:08:00,85.8,17.8,29.87,East,87,0.0,5.4,8,0.00,,FEW220,0.00,VWS V13.01,2013-06-21 17:08:00,
2013-06-21 11:13:00,86.4,11.6,29.87,ENE,67,5.4,6.3,6,0.00,,FEW220,0.00,VWS V13.01,2013-06-21 17:13:00,
2013-06-21 11:18:00,86.7,11.9,29.87,SW,219,0.0,5.8,6,0.00,,FEW220,0.00,VWS V13.01,2013-06-21 17:18:00,
2013-06-21 11:23:00,87.1,12.1,29.87,ESE,113,3.6,7.6,6,0.00,,FEW220,0.00,VWS V13.01,2013-06-21 17:23:00,
2013-06-21 11:28:00,88.0,8.7,29.84,WNW,302,2.2,7.6,5,0.00,,FEW220,0.00,VWS V13.01,2013-06-21 17:28:00,
2013-06-21 11:34:00,89.2,9.6,29.84,SSE,153,2.7,5.4,5,0.00,,FEW220,0.00,VWS V13.01,2013-06-21 17:34:00,
2013-06-21 11:39:00,89.6,9.8,29.84,SSE,159,4.0,6.3,5,0.00,,FEW220,0.00,VWS V13.01,2013-06-21 17:39:00,
2013-06-21 11:45:00,89.8,9.9,29.84,ESE,106,3.1,7.6,5,0.00,,FEW220,0.00,VWS V13.01,2013-06-21 17:45:00,
2013-06-21 11:46:00,89.8,9.9,29.84,East,91,4.0,4.0,5,0.00,,FEW220,0.00,VWS V13.01,2013-06-21 17:46:00,
2013-06-21 11:47:00,90.0,10.1,29.84,ENE,69,3.6,8.3,5,0.00,,FEW220,0.00,VWS V13.01,2013-06-21 17:47:00,
2013-06-21 11:53:00,90.3,10.3,29.84,South,191,7.6,8.3,5,0.00,,FEW220,0.00,VWS V13.01,2013-06-21 17:53:00,
2013-06-21 11:58:00,90.3,10.3,29.84,East,96,5.4,8.3,5,0.00,,FEW220,0.00,VWS V13.01,2013-06-21 17:58:00,
2013-06-21 12:03:00,90.0,10.1,29.84,SW,229,3.1,6.3,5,0.00,,FEW220,0.00,VWS V13.01,2013-06-21 18:03:00,
2013-06-21 12:08:00,90.5,10.4,29.84,East,95,3.1,6.3,5,0.00,,FEW220,0.00,VWS V13.01,2013-06-21 18:08:00,
2013-06-21 12:13:00,90.5,10.4,29.84,SSE,163,2.7,13.6,5,0.00,,FEW220,0.00,VWS V13.01,2013-06-21 18:13:00,
2013-06-21 12:18:00,90.5,10.4,29.84,ESE,112,4.0,8.7,5,0.00,,FEW220,0.00,VWS V13.01,2013-06-21 18:18:00,
2013-06-21 12:23:00,90.7,10.6,29.84,SSE,168,3.6,8.7,5,0.00,,FEW220,0.00,VWS V13.01,2013-06-21 18:23:00,
2013-06-21 12:24:00,90.7,10.6,29.84,WNW,287,0.0,8.7,5,0.00,,FEW220,0.00,VWS V13.01,2013-06-21 18:24:00,
2013-06-21 12:29:00,90.3,10.3,29.84,WNW,290,0.0,8.7,5,0.00,,FEW220,0.00,VWS V13.01,2013-06-21 18:29:00,
2013-06-21 12:34:00,91.0,10.8,29.84,ENE,68,4.0,7.2,5,0.00,,FEW220,0.00,VWS V13.01,2013-06-21 18:34:00,
2013-06-21 12:39:00,91.6,6.3,29.84,NE,44,0.0,7.2,4,0.00,,FEW220,0.00,VWS V13.01,2013-06-21 18:39:00,
2013-06-21 12:44:00,92.1,6.6,29.84,SSE,157,5.8,7.2,4,0.00,,FEW220,0.00,VWS V13.01,2013-06-21 18:44:00,
2013-06-21 12:45:00,92.3,6.8,29.84,South,176,3.1,7.2,4,0.00,,FEW220,0.00,VWS V13.01,2013-06-21 18:45:00,
2013-06-21 12:46:00,92.3,6.8,29.84,SE,143,9.6,9.6,4,0.00,,FEW220,0.00,VWS V13.01,2013-06-21 18:46:00,
2013-06-21 12:47:00,92.1,6.6,29.84,East,89,0.0,9.6,4,0.00,,FEW220,0.00,VWS V13.01,2013-06-21 18:47:00,
2013-06-21 12:52:00,91.8,6.4,29.84,ENE,75,4.0,9.6,4,0.00,,FEW220,0.00,VWS V13.01,2013-06-21 18:52:00,
2013-06-21 12:57:00,91.8,6.4,29.84,East,91,4.0,9.6,4,0.00,,FEW220,0.00,VWS V13.01,2013-06-21 18:57:00,
2013-06-21 13:02:00,92.1,6.6,29.84,ESE,112,5.4,6.3,4,0.00,,FEW220,0.00,VWS V13.01,2013-06-21 19:02:00,
2013-06-21 13:07:00,92.3,6.8,29.84,SSE,166,4.0,7.6,4,0.00,,FEW220,0.00,VWS V13.01,2013-06-21 19:07:00,
2013-06-21 13:12:00,92.3,6.8,29.81,ESE,104,7.6,7.6,4,0.00,,FEW220,0.00,VWS V13.01,2013-06-21 19:12:00,
2013-06-21 13:18:00,92.3,6.8,29.81,ENE,62,2.2,5.8,4,0.00,,FEW220,0.00,VWS V13.01,2013-06-21 19:18:00,
2013-06-21 13:20:00,92.3,6.8,29.81,SSW,198,2.7,5.8,4,0.00,,FEW220,0.00,VWS V13.01,2013-06-21 19:20:00,
2013-06-21 13:25:00,92.7,7.0,29.81,ESE,112,4.0,8.1,4,0.00,,FEW220,0.00,VWS V13.01,2013-06-21 19:25:00,
2013-06-21 13:30:00,92.7,7.0,29.81,SSW,192,4.0,4.0,4,0.00,,FEW220,0.00,VWS V13.01,2013-06-21 19:30:00,
2013-06-21 13:35:00,93.6,7.6,29.81,NW,310,2.7,5.4,4,0.00,,FEW220,0.00,VWS V13.01,2013-06-21 19:35:00,
2013-06-21 13:40:00,94.5,8.2,29.81,ENE,74,4.0,8.3,4,0.00,,FEW220,0.00,VWS V13.01,2013-06-21 19:40:00,
2013-06-21 13:45:00,94.3,8.1,29.81,East,101,6.3,8.3,4,0.00,,FEW220,0.00,VWS V13.01,2013-06-21 19:45:00,
2013-06-21 13:50:00,93.6,7.6,29.81,ENE,78,0.0,6.3,4,0.00,,FEW220,0.00,VWS V13.01,2013-06-21 19:50:00,
2013-06-21 13:55:00,94.3,8.1,29.81,East,88,3.1,6.3,4,0.00,,FEW220,0.00,VWS V13.01,2013-06-21 19:55:00,
2013-06-21 14:00:00,94.8,8.5,29.81,ENE,61,4.0,4.0,4,0.00,,FEW220,0.00,VWS V13.01,2013-06-21 20:00:00,
2013-06-21 14:04:00,95.2,8.7,29.81,NW,304,3.6,5.8,4,0.00,,FEW220,0.00,VWS V13.01,2013-06-21 20:04:00,
2013-06-21 14:09:00,95.7,9.1,29.81,ENE,59,3.6,5.8,4,0.00,,FEW220,0.00,VWS V13.01,2013-06-21 20:09:00,
2013-06-21 14:11:00,95.7,9.1,29.81,SW,226,3.1,5.8,4,0.00,,FEW220,0.00,VWS V13.01,2013-06-21 20:11:00,
2013-06-21 14:13:00,95.4,8.8,29.81,SW,235,4.9,5.8,4,0.00,,FEW220,0.00,VWS V13.01,2013-06-21 20:13:00,
2013-06-21 14:19:00,95.2,8.7,29.81,SE,135,3.1,4.9,4,0.00,,FEW220,0.00,VWS V13.01,2013-06-21 20:19:00,
2013-06-21 14:24:00,95.0,8.6,29.81,ENE,73,2.7,6.3,4,0.00,,FEW220,0.00,VWS V13.01,2013-06-21 20:24:00,
2013-06-21 14:29:00,95.0,8.6,29.81,ENE,74,3.6,6.3,4,0.00,,FEW220,0.00,VWS V13.01,2013-06-21 20:29:00,
2013-06-21 14:34:00,94.8,8.5,29.81,ENE,70,3.6,6.3,4,0.00,,FEW220,0.00,VWS V13.01,2013-06-21 20:34:00,
2013-06-21 14:39:00,96.3,9.4,29.81,WSW,244,0.0,6.3,4,0.00,,FEW220,0.00,VWS V13.01,2013-06-21 20:39:00,
2013-06-21 14:44:00,97.3,3.9,29.81,SSE,165,0.0,6.3,3,0.00,,FEW220,0.00,VWS V13.01,2013-06-21 20:44:00,
2013-06-21 14:49:00,97.0,3.6,29.81,East,84,6.3,6.3,3,0.00,,FEW220,0.00,VWS V13.01,2013-06-21 20:49:00,
2013-06-21 14:54:00,95.7,9.1,29.81,North,357,4.0,7.6,4,0.00,,FEW220,0.00,VWS V13.01,2013-06-21 20:54:00,
2013-06-21 14:59:00,94.8,8.5,29.81,ENE,74,0.0,7.6,4,0.00,,FEW220,0.00,VWS V13.01,2013-06-21 20:59:00,
2013-06-21 15:04:00,94.3,8.1,29.81,ENE,75,0.0,2.7,4,0.00,,FEW220,0.00,VWS V13.01,2013-06-21 21:04:00,
2013-06-21 15:09:00,93.9,7.8,29.78,ENE,77,0.0,3.1,4,0.00,,FEW220,0.00,VWS V13.01,2013-06-21 21:09:00,
2013-06-21 15:14:00,93.9,7.8,29.78,ENE,77,0.0,3.1,4,0.00,,FEW220,0.00,VWS V13.01,2013-06-21 21:14:00,
2013-06-21 15:19:00,92.8,7.1,29.78,South,176,4.0,7.6,4,0.00,,FEW220,0.00,VWS V13.01,2013-06-21 21:19:00,
2013-06-21 15:24:00,91.9,6.5,29.78,ESE,106,3.6,7.6,4,0.00,,FEW220,0.00,VWS V13.01,2013-06-21 21:24:00,
2013-06-21 15:29:00,91.6,6.3,29.78,ENE,63,3.6,10.1,4,0.00,,FEW220,0.00,VWS V13.01,2013-06-21 21:29:00,
2013-06-21 15:34:00,91.8,6.4,29.78,West,279,5.4,5.8,4,0.00,,FEW220,0.00,VWS V13.01,2013-06-21 21:34:00,
2013-06-21 15:39:00,91.4,6.1,29.78,WNW,284,0.0,5.8,4,0.00,,FEW220,0.00,VWS V13.01,2013-06-21 21:39:00,
2013-06-21 15:44:00,91.2,10.9,29.78,North,0,0.0,5.8,5,0.00,,FEW220,0.00,VWS V13.01,2013-06-21 21:44:00,
2013-06-21 15:49:00,91.4,6.1,29.78,NNW,331,0.0,3.1,4,0.00,,FEW220,0.00,VWS V13.01,2013-06-21 21:49:00,
2013-06-21 15:54:00,91.0,10.8,29.78,NNE,16,0.0,3.1,5,0.00,,FEW220,0.00,VWS V13.01,2013-06-21 21:54:00,
2013-06-21 15:59:00,90.5,10.4,29.78,North,7,0.0,6.7,5,0.00,,FEW220,0.00,VWS V13.01,2013-06-21 21:59:00,
2013-06-21 16:04:00,90.1,10.2,29.78,WNW,289,3.1,3.1,5,0.00,,FEW220,0.00,VWS V13.01,2013-06-21 22:04:00,
2013-06-21 16:09:00,89.8,9.9,29.78,North,2,0.0,7.6,5,0.00,,FEW220,0.00,VWS V13.01,2013-06-21 22:09:00,
2013-06-21 16:15:00,89.6,9.8,29.78,North,1,0.0,7.6,5,0.00,,FEW220,0.00,VWS V13.01,2013-06-21 22:15:00,
2013-06-21 16:20:00,89.2,9.6,29.78,North,9,0.0,4.0,5,0.00,,FEW220,0.00,VWS V13.01,2013-06-21 22:20:00,
2013-06-21 16:25:00,89.2,9.6,29.78,WNW,294,2.7,4.0,5,0.00,,FEW220,0.00,VWS V13.01,2013-06-21 22:25:00,
2013-06-21 16:30:00,89.1,9.4,29.78,North,353,2.7,2.7,5,0.00,,FEW220,0.00,VWS V13.01,2013-06-21 22:30:00,
2013-06-21 16:35:00,88.9,9.3,29.78,West,262,2.7,4.9,5,0.00,,FEW220,0.00,VWS V13.01,2013-06-21 22:35:00,
2013-06-21 16:40:00,88.7,9.2,29.78,West,276,0.0,7.2,5,0.00,,FEW220,0.00,VWS V13.01,2013-06-21 22:40:00,
2013-06-21 16:45:00,88.9,9.3,29.78,West,277,0.0,0.0,5,0.00,,FEW220,0.00,VWS V13.01,2013-06-21 22:45:00,
2013-06-21 16:50:00,88.9,9.3,29.78,West,277,0.0,0.0,5,0.00,,FEW220,0.00,VWS V13.01,2013-06-21 22:50:00,
2013-06-21 16:55:00,88.7,9.2,29.78,WSW,255,0.0,0.0,5,0.00,,FEW220,0.00,VWS V13.01,2013-06-21 22:55:00,
2013-06-21 17:00:00,88.5,9.1,29.78,WSW,256,0.0,0.0,5,0.00,,FEW220,0.00,VWS V13.01,2013-06-21 23:00:00,
2013-06-21 17:05:00,88.3,8.9,29.78,WSW,256,0.0,0.0,5,0.00,,FEW220,0.00,VWS V13.01,2013-06-21 23:05:00,
2013-06-21 17:10:00,88.2,8.8,29.78,WSW,256,0.0,0.0,5,0.00,,FEW220,0.00,VWS V13.01,2013-06-21 23:10:00,
2013-06-21 17:15:00,88.0,8.7,29.78,WSW,249,0.0,0.0,5,0.00,,FEW220,0.00,VWS V13.01,2013-06-21 23:15:00,
2013-06-21 17:20:00,87.6,12.5,29.78,West,269,0.0,3.1,6,0.00,,FEW220,0.00,VWS V13.01,2013-06-21 23:20:00,
2013-06-21 17:25:00,87.3,12.2,29.78,West,272,2.2,3.1,6,0.00,,FEW220,0.00,VWS V13.01,2013-06-21 23:25:00,
2013-06-21 17:30:00,87.1,12.1,29.78,West,272,0.0,0.0,6,0.00,,FEW220,0.00,VWS V13.01,2013-06-21 23:30:00,
2013-06-21 17:35:00,87.1,12.1,29.78,West,273,0.0,0.0,6,0.00,,FEW220,0.00,VWS V13.01,2013-06-21 23:35:00,
2013-06-21 17:40:00,86.7,11.9,29.78,West,273,0.0,3.1,6,0.00,,FEW220,0.00,VWS V13.01,2013-06-21 23:40:00,
2013-06-21 17:45:00,87.1,12.1,29.78,NNE,19,0.0,0.0,6,0.00,,BKN200,0.00,VWS V13.01,2013-06-21 23:45:00,
2013-06-21 17:50:00,87.3,12.2,29.78,ENE,65,0.0,2.7,6,0.00,,BKN200,0.00,VWS V13.01,2013-06-21 23:50:00,
2013-06-21 17:55:00,87.3,12.2,29.78,ENE,65,0.0,2.7,6,0.00,,BKN200,0.00,VWS V13.01,2013-06-21 23:55:00,
2013-06-21 18:01:00,87.1,12.1,29.78,ENE,67,0.0,0.0,6,0.00,,BKN200,0.00,VWS V13.01,2013-06-22 00:01:00,
2013-06-21 18:06:00,86.7,11.9,29.78,SW,219,0.0,2.7,6,0.00,,BKN200,0.00,VWS V13.01,2013-06-22 00:06:00,
2013-06-21 18:11:00,86.5,11.7,29.78,SW,218,0.0,2.7,6,0.00,,BKN200,0.00,VWS V13.01,2013-06-22 00:11:00,
2013-06-21 18:16:00,86.0,11.4,29.78,SW,218,0.0,0.0,6,0.00,,BKN200,0.00,VWS V13.01,2013-06-22 00:16:00,
2013-06-21 18:21:00,85.1,10.7,29.78,SW,219,0.0,0.0,6,0.00,,BKN200,0.00,VWS V13.01,2013-06-22 00:21:00,
2013-06-21 18:26:00,84.7,10.4,29.78,SW,219,0.0,0.0,6,0.00,,BKN200,0.00,VWS V13.01,2013-06-22 00:26:00,
2013-06-21 18:31:00,84.7,10.4,29.78,SW,219,0.0,0.0,6,0.00,,BKN200,0.00,VWS V13.01,2013-06-22 00:31:00,
2013-06-21 18:36:00,84.9,10.6,29.78,SW,219,0.0,0.0,6,0.00,,BKN200,0.00,VWS V13.01,2013-06-22 00:36:00,
2013-06-21 18:41:00,85.3,10.8,29.78,WNW,285,0.0,0.0,6,0.00,,BKN200,0.00,VWS V13.01,2013-06-22 00:41:00,
2013-06-21 18:46:00,85.6,11.1,29.78,North,4,0.0,2.7,6,0.00,,BKN200,0.00,VWS V13.01,2013-06-22 00:46:00,
2013-06-21 18:51:00,86.0,11.4,29.78,North,7,0.0,2.7,6,0.00,,BKN200,0.00,VWS V13.01,2013-06-22 00:51:00,
2013-06-21 18:56:00,86.0,11.4,29.78,NNE,17,0.0,2.7,6,0.00,,BKN200,0.00,VWS V13.01,2013-06-22 00:56:00,
2013-06-21 19:01:00,86.0,11.4,29.78,ENE,62,0.0,0.0,6,0.00,,BKN200,0.00,VWS V13.01,2013-06-22 01:01:00,
2013-06-21 19:06:00,85.8,11.2,29.78,North,357,0.0,0.0,6,0.00,,BKN200,0.00,VWS V13.01,2013-06-22 01:06:00,
2013-06-21 19:11:00,85.6,11.1,29.78,North,357,0.0,0.0,6,0.00,,BKN200,0.00,VWS V13.01,2013-06-22 01:11:00,
2013-06-21 19:16:00,85.3,10.8,29.78,North,353,0.0,2.7,6,0.00,,BKN200,0.00,VWS V13.01,2013-06-22 01:16:00,
2013-06-21 19:21:00,85.1,10.7,29.78,North,353,0.0,2.7,6,0.00,,BKN200,0.00,VWS V13.01,2013-06-22 01:21:00,
2013-06-21 19:26:00,84.9,10.6,29.78,West,281,0.0,2.7,6,0.00,,BKN200,0.00,VWS V13.01,2013-06-22 01:26:00,
2013-06-21 19:31:00,84.6,10.3,29.78,West,281,0.0,0.0,6,0.00,,BKN200,0.00,VWS V13.01,2013-06-22 01:31:00,
2013-06-21 19:36:00,84.4,10.2,29.78,West,281,0.0,0.0,6,0.00,,BKN200,0.00,VWS V13.01,2013-06-22 01:36:00,
2013-06-21 19:41:00,83.8,9.8,29.78,West,281,0.0,0.0,6,0.00,,BKN200,0.00,VWS V13.01,2013-06-22 01:41:00,
2013-06-21 19:46:00,83.5,9.5,29.78,West,281,0.0,0.0,6,0.00,,BKN200,0.00,VWS V13.01,2013-06-22 01:46:00,
2013-06-21 19:51:00,83.3,9.4,29.78,South,183,0.0,0.0,6,0.00,,BKN200,0.00,VWS V13.01,2013-06-22 01:51:00,
2013-06-21 19:56:00,83.3,9.4,29.78,SE,138,0.0,4.0,6,0.00,,BKN200,0.00,VWS V13.01,2013-06-22 01:56:00,
2013-06-21 20:01:00,83.3,9.4,29.78,SE,138,0.0,0.0,6,0.00,,BKN200,0.00,VWS V13.01,2013-06-22 02:01:00,
2013-06-21 20:06:00,83.1,9.3,29.78,ENE,75,0.0,3.6,6,0.00,,BKN200,0.00,VWS V13.01,2013-06-22 02:06:00,
2013-06-21 20:11:00,82.9,9.1,29.78,WSW,245,2.7,3.6,6,0.00,,BKN200,0.00,VWS V13.01,2013-06-22 02:11:00,
2013-06-21 20:16:00,82.8,9.0,29.78,WSW,247,4.0,4.0,6,0.00,,BKN200,0.00,VWS V13.01,2013-06-22 02:16:00,
2013-06-21 20:21:00,82.9,9.1,29.78,SSW,206,7.6,8.7,6,0.00,,BKN200,0.00,VWS V13.01,2013-06-22 02:21:00,
2013-06-21 20:26:00,84.7,10.4,29.81,WSW,246,5.4,16.8,6,0.00,,BKN200,0.00,VWS V13.01,2013-06-22 02:26:00,
2013-06-21 20:31:00,85.8,11.2,29.81,NNW,329,8.3,8.3,6,0.00,,BKN200,0.00,VWS V13.01,2013-06-22 02:31:00,
2013-06-21 20:36:00,86.2,11.5,29.81,SW,232,8.3,13.2,6,0.00,,BKN200,0.00,VWS V13.01,2013-06-22 02:36:00,
2013-06-21 20:41:00,86.4,11.6,29.78,WNW,284,5.8,13.2,6,0.00,,BKN200,0.00,VWS V13.01,2013-06-22 02:41:00,
2013-06-21 20:46:00,86.4,11.6,29.78,NW,306,3.1,4.0,6,0.00,,BKN200,0.00,VWS V13.01,2013-06-22 02:46:00,
2013-06-21 20:51:00,86.2,11.5,29.78,NW,308,2.7,6.3,6,0.00,,BKN200,0.00,VWS V13.01,2013-06-22 02:51:00,
2013-06-21 20:56:00,85.8,11.2,29.81,North,353,0.0,6.3,6,0.00,,BKN200,0.00,VWS V13.01,2013-06-22 02:56:00,
2013-06-21 21:01:00,85.5,11.0,29.81,ENE,57,4.5,4.5,6,0.00,,BKN200,0.00,VWS V13.01,2013-06-22 03:01:00,
2013-06-21 21:06:00,84.6,10.3,29.81,ENE,74,5.4,8.3,6,0.00,,BKN200,0.00,VWS V13.01,2013-06-22 03:06:00,
2013-06-21 21:12:00,83.5,9.5,29.84,NE,50,0.0,8.3,6,0.00,,BKN200,0.00,VWS V13.01,2013-06-22 03:12:00,
2013-06-21 21:17:00,82.8,9.0,29.84,NE,50,0.0,0.0,6,0.00,,BKN200,0.00,VWS V13.01,2013-06-22 03:17:00,
2013-06-21 21:22:00,82.0,11.9,29.84,NE,55,3.1,5.4,7,0.00,,BKN200,0.00,VWS V13.01,2013-06-22 03:22:00,
2013-06-21 21:27:00,81.1,11.3,29.87,ENE,63,0.0,5.4,7,0.00,,BKN200,0.00,VWS V13.01,2013-06-22 03:27:00,
2013-06-21 21:32:00,80.4,18.9,29.87,ENE,63,0.0,0.0,10,0.00,,BKN200,0.00,VWS V13.01,2013-06-22 03:32:00,
2013-06-21 21:37:00,79.7,18.4,29.87,East,91,0.0,3.6,10,0.00,,BKN200,0.00,VWS V13.01,2013-06-22 03:37:00,
2013-06-21 21:42:00,79.3,18.1,29.87,NE,37,0.0,4.0,10,0.00,,BKN200,0.00,VWS V13.01,2013-06-22 03:42:00,
2013-06-21 21:47:00,79.2,18.0,29.87,NE,37,0.0,0.0,10,0.00,,BKN200,0.00,VWS V13.01,2013-06-22 03:47:00,
2013-06-21 21:52:00,79.0,9.7,29.87,ENE,75,2.7,3.1,7,0.00,,BKN200,0.00,VWS V13.01,2013-06-22 03:52:00,
2013-06-21 21:57:00,78.8,9.6,29.87,ENE,75,0.0,3.1,7,0.00,,BKN200,0.00,VWS V13.01,2013-06-22 03:57:00,
2013-06-21 22:01:00,78.8,9.6,29.87,East,87,2.2,2.7,7,0.00,,BKN200,0.00,VWS V13.01,2013-06-22 04:01:00,
2013-06-21 22:06:00,78.3,17.3,29.87,East,86,0.0,2.7,10,0.00,,BKN200,0.00,VWS V13.01,2013-06-22 04:06:00,
2013-06-21 22:12:00,77.9,17.0,29.87,East,87,0.0,2.7,10,0.00,,BKN200,0.00,VWS V13.01,2013-06-22 04:12:00,
2013-06-21 22:17:00,77.4,16.6,29.87,East,86,0.0,0.0,10,0.00,,BKN200,0.00,VWS V13.01,2013-06-22 04:17:00,
2013-06-21 22:22:00,76.6,22.1,29.87,East,86,0.0,0.0,13,0.00,,BKN200,0.00,VWS V13.01,2013-06-22 04:22:00,
2013-06-21 22:27:00,75.9,21.6,29.87,East,87,0.0,0.0,13,0.00,,BKN200,0.00,VWS V13.01,2013-06-22 04:27:00,
2013-06-21 22:32:00,75.4,21.2,29.87,East,86,0.0,0.0,13,0.00,,BKN200,0.00,VWS V13.01,2013-06-22 04:32:00,
2013-06-21 22:37:00,75.0,20.9,29.87,East,86,2.7,3.1,13,0.00,,BKN200,0.00,VWS V13.01,2013-06-22 04:37:00,
2013-06-21 22:42:00,74.8,20.7,29.87,East,87,2.2,3.1,13,0.00,,BKN200,0.00,VWS V13.01,2013-06-22 04:42:00,
2013-06-21 22:47:00,74.7,28.4,29.87,East,94,4.0,4.0,18,0.00,,BKN200,0.00,VWS V13.01,2013-06-22 04:47:00,
2013-06-21 22:52:00,74.7,32.2,29.87,SE,131,0.0,5.8,21,0.00,,BKN200,0.00,VWS V13.01,2013-06-22 04:52:00,
2013-06-21 22:57:00,74.5,32.0,29.87,SE,131,0.0,5.8,21,0.00,,BKN200,0.00,VWS V13.01,2013-06-22 04:57:00,
2013-06-21 23:02:00,74.1,31.7,29.87,SE,131,0.0,0.0,21,0.00,,BKN200,0.00,VWS V13.01,2013-06-22 05:02:00,
2013-06-21 23:07:00,73.9,32.7,29.87,East,89,3.6,6.3,22,0.00,,BKN220,0.00,VWS V13.01,2013-06-22 05:07:00,
2013-06-21 23:12:00,73.9,32.7,29.90,ESE,122,3.1,6.3,22,0.00,,BKN220,0.00,VWS V13.01,2013-06-22 05:12:00,
2013-06-21 23:17:00,73.8,32.6,29.90,WSW,247,0.0,2.7,22,0.00,,BKN220,0.00,VWS V13.01,2013-06-22 05:17:00,
2013-06-21 23:22:00,73.6,32.4,29.90,WSW,247,0.0,2.7,22,0.00,,BKN220,0.00,VWS V13.01,2013-06-22 05:22:00,
2013-06-21 23:27:00,73.2,33.2,29.90,WSW,247,0.0,2.7,23,0.00,,BKN220,0.00,VWS V13.01,2013-06-22 05:27:00,
2013-06-21 23:32:00,72.9,32.9,29.90,WSW,247,0.0,0.0,23,0.00,,BKN220,0.00,VWS V13.01,2013-06-22 05:32:00,
2013-06-21 23:37:00,72.7,32.8,29.90,West,275,0.0,0.0,23,0.00,,BKN220,0.00,VWS V13.01,2013-06-22 05:37:00,
2013-06-21 23:42:00,72.7,33.8,29.90,West,275,0.0,0.0,24,0.00,,BKN220,0.00,VWS V13.01,2013-06-22 05:42:00,
2013-06-21 23:47:00,72.5,33.7,29.90,West,275,0.0,0.0,24,0.00,,BKN220,0.00,VWS V13.01,2013-06-22 05:47:00,
2013-06-21 23:52:00,72.5,34.7,29.90,West,276,0.0,0.0,25,0.00,,BKN220,0.00,VWS V13.01,2013-06-22 05:52:00,
2013-06-21 23:57:00,72.3,34.6,29.93,West,276,0.0,0.0,25,0.00,,BKN220,0.00,VWS V13.01,2013-06-22 05:57:00,